IRIDIUM 10 [P]

Last updated on Mon Sep 17 2018 17:46:18 GMT+0100 (British Summer Time)

1 24839U 97030D 18260.25452822 .00003398 00000-0 14885-3 0 9994 2 24839 86.4137 158.9403 0230031 177.3919 182.8578 15.00821801112473
UTC large
Height (km)
Speed (km/s)
/
Latitude / Longitude
Inclination (degrees)
Orbital Period (minutes)
Azimuth
Elevation
Range (km)
Doppler Factor

Next 0 passes for location: London (51.5072 / 0.1276)

Sorry there are no passes over London.